Flag for Germany Weather past 2 weeks in Datteln, North Rhine-Westphalia, Germany

Now
54 °F

Scattered clouds.


Feels Like: 51 °F
Forecast: 47 / 58 °F
Wind: 8 mph from Southwest

Location: Dortmund / Wickede

Current Time: Oct 23, 2014 at 5:38:55 PM

Latest Report: Oct 23, 2014 at 5:20 PM


Visibility: N/A

Pressure: 30.18 "Hg

Humidity: 72%

Dew point: 45 °F

Location of DattelnLocation

Historic Weather in Datteln — Graph

°F

Datteln temperature yesterday

Maximum temperature yesterday: 52 °F (at 3:50 PM)
Minimum temperature yesterday: 45 °F (at 5:20 AM)
Average temperature yesterday: 47 °F

Past Weeks' High & Low Weather Summary

 TemperatureHumidityPressure
High73 °F (Oct 19, 2:20 PM)94% (Oct 11, 7:50 AM)30.21 "Hg (Oct 11, 7:50 AM)
Low45 °F (Oct 22, 5:20 AM)49% (Oct 10, 2:50 PM)29.47 "Hg (Oct 21, 4:20 PM)
Average57 °F75%29.87 "Hg
* Reported Oct 8 4:20 PM — Oct 23 4:50 PM, Datteln, Weather by CustomWeather, © 2014

Note: Actual official high and low records may vary slightly from our data, if they occured in-between our weather recording intervals... More about our weather records

Advertising

Datteln weather history for previous 24 hours

 ConditionsComfort  
Time TempWeatherWind HumidityBarometerVisibility
4:50 PM
Oct 23
54 °FPartly sunny.10 mph72%30.18 "HgN/A
4:20 PM54 °FPartly sunny.10 mph72%30.21 "HgN/A
3:50 PM54 °FPassing clouds.9 mph72%30.21 "HgN/A
3:20 PM54 °FPartly sunny.9 mph72%30.21 "HgN/A
2:50 PM54 °FPartly sunny.10 mph72%30.21 "HgN/A
2:20 PM55 °FMostly cloudy.8 mph72%30.21 "HgN/A
1:50 PM54 °FPartly sunny.8 mph72%30.21 "HgN/A
1:20 PM54 °FBroken clouds.8 mph77%30.21 "HgN/A
12:50 PM54 °FScattered clouds.9 mph77%30.21 "HgN/A
12:20 PM54 °FPartly sunny.8 mph77%30.21 "HgN/A
11:50 AM52 °FPartly sunny.7 mph82%30.21 "HgN/A
11:20 AM50 °FPartly sunny.7 mph82%30.21 "HgN/A
10:50 AM50 °FBroken clouds.7 mph82%30.21 "HgN/A
10:20 AM50 °FPartly sunny.8 mph82%30.21 "Hg5 mi
9:50 AM48 °FOvercast.8 mph87%30.21 "Hg4 mi
9:20 AM48 °FOvercast.6 mph87%30.21 "Hg4 mi
8:50 AM46 °FMostly cloudy.6 mph93%30.21 "Hg4 mi
8:20 AM46 °FFog.5 mph87%30.18 "Hg3 mi
7:50 AM46 °FOvercast.6 mph87%30.18 "Hg5 mi
7:20 AM46 °FOvercast.7 mph87%30.18 "HgN/A
6:50 AM46 °FPassing clouds.6 mph87%30.18 "HgN/A
6:20 AM46 °FOvercast.7 mph87%30.18 "HgN/A
5:50 AM46 °FPassing clouds.7 mph87%30.18 "HgN/A
5:20 AM46 °FPassing clouds.8 mph87%30.18 "HgN/A
10:50 PM
Oct 22
48 °FPassing clouds.7 mph76%30.15 "HgN/A
10:20 PM48 °FPassing clouds.10 mph76%30.15 "HgN/A
9:50 PM48 °FPassing clouds.10 mph76%30.15 "HgN/A
9:20 PM48 °FPassing clouds.10 mph76%30.12 "HgN/A
8:50 PM48 °FPassing clouds.9 mph76%30.12 "HgN/A
8:20 PM48 °FClear.12 mph76%30.12 "Hg10 mi
7:50 PM48 °FPassing clouds.12 mph82%30.09 "HgN/A
7:20 PM48 °FSunny.15 mph76%30.09 "Hg10 mi
6:50 PM48 °FSunny.13 mph76%30.07 "Hg10 mi
6:20 PM48 °FScattered showers. Partly sunny.10 mph76%30.07 "HgN/A
5:50 PM48 °FScattered showers. Partly sunny.15 mph76%30.04 "HgN/A
5:20 PM50 °FScattered showers. Scattered clouds.15 mph71%30.04 "HgN/A
Weather by CustomWeather, © 2014

See weather overviewHow to use our weather pages